User: anonymous   Login
Location: Unspecified
(0.0000°N, 0.0000°E)
Time: 01:59:46
(UTC+00:00)
Language:

DANDE - Orbit

View from above orbital plane
View from above orbital plane
View from above satellite
View from above satellite

Ground track
Ground track

The orbit data is extracted from the following two-line orbital elements,

1 39267U 13055C   17325.52553445  .00003332  00000-0  98428-4 0  9998
2 39267  81.0132 225.4714 0708717 178.7388 181.5814 14.18192974213326
Epoch (UTC): 21 November 2017 12:36:46
Eccentricity: 0.0708717
inclination: 81.0132°
perigee height: 320 km
apogee height: 1342 km
right ascension of ascending node: 225.4714°
argument of perigee: 178.7388°
revolutions per day: 14.18192974
mean anomaly at epoch: 181.5814°
orbit number at epoch: 21332

The dashed part of the orbit path shows where the satellite is in the earth's shadow,  

DLR